RUSSARO Weather Reports


time (UTC)temp
F
wind
direction
speed
knots
gust
knots
rain 1hr
in
rain 24hr
in
rain mn
in
humidity
%
barometer
mb
20260506124723 47 254 16.5 17.4 0.00 0.00 0.00 63 1015.1
20260506122723 47 253 16.5 17.4 0.00 0.00 0.00 69 1015.2
20260506120723 47 251 15.6 16.5 0.00 0.00 0.00 68 1015.2
20260506114723 47 253 16.5 17.4 0.00 0.00 0.00 69 1015.2
20260506112723 47 245 15.6 16.5 0.00 0.00 0.00 69 1015.2
20260506110723 46 238 15.6 17.4 0.00 0.00 0.00 73 1015.1
20260506104724 46 233 15.6 16.5 0.00 0.00 0.00 74 1015.2
20260506102724 46 233 15.6 16.5 0.00 0.00 0.00 79 1015.1
20260506100725 45 237 14.8 15.6 0.00 0.00 0.00 76 1015.0
20260506094725 45 232 12.2 13.9 0.00 0.00 0.00 79 1014.9
20260506092724 45 241 11.3 13.0 0.00 0.00 0.00 75 1014.6
20260506090724 48 264 10.4 11.3 0.00 0.00 0.00 64 1014.4
20260506084724 47 270 11.3 12.2 0.00 0.00 0.00 63 1014.3
20260506082724 47 276 11.3 12.2 0.00 0.00 0.00 66 1014.2
20260506080724 46 266 11.3 13.0 0.00 0.00 0.00 70 1014.2
20260506072725 46 248 12.2 12.2 0.00 0.00 0.00 78 1014.0
20260506070724 45 251 11.3 11.3 0.00 0.00 0.00 78 1013.8
20260506060724 45 261 10.4 11.3 0.00 0.00 0.00 74 1013.4
20260506050723 43 272 9.6 11.3 0.00 0.00 0.00 73 1012.9
20260506044724 43 281 10.4 12.2 0.00 0.00 0.00 71 1012.6
20260506042723 43 293 10.4 11.3 0.00 0.00 0.00 70 1012.4
20260506040723 42 298 9.6 11.3 0.00 0.00 0.00 75 1012.2
20260506034724 42 299 10.4 12.2 0.00 0.00 0.00 75 1012.0
20260506032723 40 297 9.6 12.2 0.00 0.00 0.00 80 1011.8
20260506030723 40 294 11.3 13.0 0.00 0.00 0.00 83 1011.6
20260506024723 39 288 12.2 14.8 0.00 0.00 0.00 87 1011.4
20260506022723 39 256 13.9 15.6 0.00 0.00 0.00 97 1011.4
20260506020723 39 249 13.0 13.9 0.00 0.00 0.00 97 1011.2
20260506014723 39 252 11.3 13.0 0.00 0.00 0.00 97 1011.0
20260506012723 39 252 10.4 11.3 0.00 0.00 0.00 97 1010.7
20260506010723 38 252 9.6 10.4 0.00 0.00 0.00 96 1010.6
20260506004722 38 255 9.6 10.4 0.00 0.00 0.00 95 1010.4
20260506002723 39 263 10.4 11.3 0.00 0.00 0.00 92 1010.3
20260506000723 39 282 12.2 13.0 0.00 0.00 0.00 89 1010.3
20260505234723 39 285 9.6 10.4 0.00 0.00 0.00 89 1010.1
20260505232723 39 280 11.3 12.2 0.00 0.00 0.00 90 1010.0
20260505230722 39 279 12.2 13.0 0.00 0.00 0.00 91 1009.9
20260505224722 39 282 12.2 13.0 0.00 0.00 0.00 91 1009.9
20260505222722 40 284 13.0 13.9 0.00 0.00 0.00 90 1009.9
20260505220723 40 285 13.0 13.9 0.00 0.00 0.00 89 1009.8
20260505214723 40 284 13.9 14.8 0.00 0.00 0.00 90 1009.7
20260505212722 40 281 15.6 17.4 0.00 0.00 0.00 88 1009.7
20260505210721 40 287 16.5 18.2 0.00 0.00 0.00 86 1009.6
20260505204722 40 283 16.5 18.2 0.00 0.00 0.00 78 1009.4
20260505202722 40 280 17.4 19.1 0.00 0.00 0.00 78 1009.3
20260505200722 40 283 16.5 18.2 0.00 0.00 0.00 75 1009.1
20260505194721 40 273 15.6 16.5 0.00 0.00 0.00 91 1009.0
20260505192722 40 270 16.5 17.4 0.00 0.00 0.00 92 1009.0
20260505190721 40 270 17.4 19.1 0.00 0.00 0.00 88 1008.9
20260505184721 40 268 18.2 20.0 0.00 0.00 0.00 89 1008.8
20260505182721 41 264 18.2 20.0 0.00 0.00 0.00 81 1008.6
20260505180721 41 266 20.0 21.7 0.00 0.00 0.00 79 1008.4
20260505174721 41 262 17.4 18.2 0.00 0.00 0.00 83 1008.3
20260505172721 42 256 18.2 20.0 0.00 0.00 0.00 83 1008.2
20260505170720 42 257 20.9 22.6 0.00 0.00 0.00 83 1008.1
20260505164721 43 260 20.9 21.7 0.00 0.00 0.00 82 1008.1
20260505162721 43 261 21.7 23.5 0.00 0.00 0.00 81 1008.1
20260505160721 44 260 20.9 23.5 0.00 0.00 0.00 78 1008.0
20260505152720 44 260 21.7 23.5 0.00 0.00 0.00 74 1007.9
20260505150721 45 261 20.9 22.6 0.00 0.00 0.00 75 1008.0